SDM601 UMMS-UUWW

Flight info

Callsign SDM601
Flight time N/A
Altitude 33000
Route SORFO2G SORFO L979 PASUD T52 BILRU BILRU3B
Aircraft A320/M-SDE3FGHIRWY/LB1

Departure

Time 2026-05-06 07:22
Airport Minsk National Airport (UMMS)

Arrival

Time N/A
Airport Vnukovo International Airport (UUWW)
Time Latitude Longitude Altitude Speed Heading
2026-05-06 06:52 53.88860 28.03412 634 ft 0 kts 343°
2026-05-06 06:56 53.88858 28.03413 634 ft 2 kts 343°
2026-05-06 06:56 53.88842 28.03419 636 ft 2 kts 348°
2026-05-06 06:56 53.88826 28.03423 635 ft 2 kts
2026-05-06 06:56 53.88810 28.03418 642 ft 2 kts 25°
2026-05-06 06:57 53.88796 28.03403 636 ft 2 kts 58°
2026-05-06 06:57 53.88789 28.03379 635 ft 1 kts 81°
2026-05-06 06:57 53.88789 28.03373 640 ft 0 kts 86°
2026-05-06 07:09 53.88789 28.03376 634 ft 2 kts 85°
2026-05-06 07:09 53.88810 28.03520 637 ft 17 kts 69°
2026-05-06 07:09 53.88792 28.03689 634 ft 17 kts 139°
2026-05-06 07:09 53.88785 28.03834 639 ft 14 kts 52°
2026-05-06 07:10 53.88855 28.03966 634 ft 16 kts 48°
2026-05-06 07:10 53.88888 28.04030 634 ft 16 kts 49°
2026-05-06 07:11 53.88909 28.04070 635 ft 17 kts 49°
2026-05-06 07:11 53.88988 28.04222 635 ft 18 kts 49°
2026-05-06 07:11 53.89074 28.04388 638 ft 19 kts 49°
2026-05-06 07:11 53.89165 28.04569 635 ft 20 kts 50°
2026-05-06 07:12 53.89273 28.04604 636 ft 16 kts 344°
2026-05-06 07:12 53.89377 28.04621 637 ft 16 kts 326°
2026-05-06 07:12 53.89460 28.04498 634 ft 16 kts 318°
2026-05-06 07:12 53.89536 28.04383 634 ft 14 kts 318°
2026-05-06 07:13 53.89606 28.04279 635 ft 13 kts 319°
2026-05-06 07:13 53.89668 28.04187 642 ft 11 kts 319°
2026-05-06 07:13 53.89721 28.04108 638 ft 9 kts 319°
2026-05-06 07:13 53.89767 28.04040 635 ft 9 kts 319°
2026-05-06 07:14 53.89875 28.03880 637 ft 29 kts 319°
2026-05-06 07:14 53.89933 28.03794 640 ft 0 kts 319°
2026-05-06 07:18 53.89934 28.03793 640 ft 2 kts 319°
2026-05-06 07:18 53.89962 28.03750 636 ft 6 kts 318°
2026-05-06 07:18 53.89991 28.03707 634 ft 7 kts 318°
2026-05-06 07:18 53.90059 28.03604 634 ft 14 kts 318°
2026-05-06 07:19 53.90136 28.03491 637 ft 14 kts 319°
2026-05-06 07:19 53.90209 28.03381 639 ft 16 kts 318°
2026-05-06 07:19 53.90326 28.03206 634 ft 23 kts 319°
2026-05-06 07:19 53.90429 28.03170 634 ft 0 kts 42°
2026-05-06 07:20 53.90472 28.03243 635 ft 21 kts 46°
2026-05-06 07:20 53.90468 28.03415 640 ft 6 kts 136°
2026-05-06 07:20 53.90451 28.03439 635 ft 0 kts 139°
2026-05-06 07:21 53.90425 28.03478 638 ft 25 kts 139°
2026-05-06 07:21 53.90098 28.03966 642 ft 96 kts 138°
2026-05-06 07:21 53.89446 28.04924 637 ft 150 kts 139°
2026-05-06 07:22 53.88589 28.06169 1018 ft 161 kts 137°
2026-05-06 07:22 53.87731 28.07392 1786 ft 161 kts 135°
2026-05-06 07:22 53.86890 28.08647 2500 ft 163 kts 138°
2026-05-06 07:22 53.85995 28.09989 2863 ft 184 kts 140°
2026-05-06 07:23 53.84978 28.11504 3154 ft 206 kts 142°
2026-05-06 07:23 53.83871 28.13151 3616 ft 216 kts 141°
2026-05-06 07:23 53.82989 28.15372 3945 ft 246 kts 109°
2026-05-06 07:23 53.82760 28.18403 4355 ft 272 kts 93°
2026-05-06 07:24 53.82833 28.21676 5020 ft 283 kts 88°
2026-05-06 07:24 53.82940 28.23938 5567 ft 287 kts 88°
2026-05-06 07:24 53.83103 28.27334 6355 ft 293 kts 88°
2026-05-06 07:24 53.83238 28.30789 7131 ft 298 kts 89°
2026-05-06 07:25 53.83335 28.34297 7970 ft 300 kts 89°
2026-05-06 07:25 53.83398 28.37839 8796 ft 303 kts 90°
2026-05-06 07:25 53.83438 28.41429 9565 ft 308 kts 90°